Location: Asheville, NC
(35.6000°N, 82.5500°W)
Time: 11:53:27

Vanguard 1 Rocket - Pass Details

Date: 11 December 2017
Orbit: 655 x 4222 km, 34.3° (Epoch: 19 March)

Event Time Altitude Azimuth Distance (km) Brightness Sun altitude
Rises 22:08:28 0° 281° (WNW) 6,191 12.1 -58.2°
Reaches altitude 10° 22:11:50 10° 280° (W) 5,547 11.7 -58.8°
Enters shadow 22:24:56 59° 260° (W) 4,002 10.4 -61.4°
Maximum altitude 22:30:56 74° 200° (SSW) 4,008 - -62.5°
Drops below altitude 10° 22:57:17 10° 121° (ESE) 7,230 - -67.4°
Sets 23:02:30 0° 119° (ESE) 8,040 - -68.4°
